Time,TemperatureF,DewpointF,PressureIn,WindDirection,WindDirectionDegrees,WindSpeedMPH,WindSpeedGustMPH,Humidity,HourlyPrecipIn,Conditions,Clouds,dailyrainin,SoftwareType,DateUTC
2013-08-12 00:00:00,70.8,69.3,30.08,South,180,0.0,0.0,95,0.00,,OVC,0.00,VWS V14.01,2013-08-12 04:00:00,
2013-08-12 01:00:00,70.8,69.0,30.05,South,180,0.0,0.0,94,0.00,,OVC,0.00,VWS V14.01,2013-08-12 05:00:00,
2013-08-12 02:00:00,70.7,68.9,30.05,South,180,0.0,0.0,94,0.00,,OVC,0.00,VWS V14.01,2013-08-12 06:00:00,
2013-08-12 03:00:00,71.2,69.1,30.05,South,180,0.0,0.0,93,0.00,,OVC,0.00,VWS V14.01,2013-08-12 07:00:00,
2013-08-12 04:00:00,69.9,68.1,30.03,South,180,0.0,0.0,94,0.00,,OVC,0.00,VWS V14.01,2013-08-12 08:00:00,
2013-08-12 05:00:00,70.7,68.3,30.03,South,180,0.0,0.0,92,0.00,,OVC,0.00,VWS V14.01,2013-08-12 09:00:00,
2013-08-12 06:00:00,70.9,68.2,30.04,South,180,0.0,0.0,91,0.00,,OVC,0.00,VWS V14.01,2013-08-12 10:00:00,
2013-08-12 07:00:00,71.1,67.0,30.05,South,180,0.0,0.0,87,0.00,,OVC,0.00,VWS V14.01,2013-08-12 11:00:00,
2013-08-12 08:00:00,71.4,67.3,30.05,South,180,0.0,0.0,87,0.00,,OVC,0.00,VWS V14.01,2013-08-12 12:00:00,
2013-08-12 09:00:00,71.6,67.9,30.05,South,180,0.0,0.0,88,0.00,,OVC,0.00,VWS V14.01,2013-08-12 13:00:00,
2013-08-12 10:00:00,73.0,68.9,30.05,South,180,0.0,0.0,87,0.00,,OVC,0.00,VWS V14.01,2013-08-12 14:00:00,
2013-08-12 11:00:00,75.2,70.7,30.05,South,180,0.0,0.0,86,0.00,,OVC,0.00,VWS V14.01,2013-08-12 15:00:00,
2013-08-12 12:00:00,76.7,72.9,30.05,South,180,0.0,0.0,88,0.00,,OVC,0.00,VWS V14.01,2013-08-12 16:00:00,
2013-08-12 13:00:00,79.7,71.9,30.03,South,180,0.0,0.0,77,0.00,,OVC,0.00,VWS V14.01,2013-08-12 17:00:00,
2013-08-12 14:00:00,81.9,73.2,30.01,South,180,0.0,0.0,75,0.00,,OVC,0.00,VWS V14.01,2013-08-12 18:00:00,
2013-08-12 15:00:00,78.0,70.6,29.99,North,0,0.0,0.0,78,0.76,,OVC,0.76,VWS V14.01,2013-08-12 19:00:00,
2013-08-12 15:11:00,72.1,67.0,30.00,ESE,104,0.0,0.0,84,0.41,,OVC,0.41,VWS V14.01,2013-08-12 19:11:00,
2013-08-12 15:16:00,70.2,66.2,29.99,NE,45,0.0,0.0,87,0.55,,OVC,0.55,VWS V14.01,2013-08-12 19:16:00,
2013-08-12 15:21:00,69.1,66.1,29.99,NNE,21,0.0,0.0,90,0.71,,OVC,0.71,VWS V14.01,2013-08-12 19:21:00,
2013-08-12 16:00:00,69.9,69.3,29.98,North,0,0.0,0.0,98,1.80,,OVC,1.80,VWS V14.01,2013-08-12 20:00:00,
2013-08-12 17:00:00,69.8,67.1,30.00,North,0,0.0,0.0,91,1.05,,OVC,1.81,VWS V14.01,2013-08-12 21:00:00,
2013-08-12 18:00:00,70.4,69.5,29.98,North,0,0.0,0.0,97,0.06,,OVC,1.86,VWS V14.01,2013-08-12 22:00:00,
2013-08-12 19:00:00,72.1,71.2,29.95,North,0,0.0,0.0,97,0.05,,OVC,1.86,VWS V14.01,2013-08-12 23:00:00,
2013-08-12 20:00:00,71.1,69.9,29.95,North,0,0.0,0.0,96,0.00,,OVC,1.86,VWS V14.01,2013-08-13 00:00:00,
2013-08-12 21:00:00,70.8,69.6,29.96,North,0,0.0,0.0,96,0.00,,OVC,1.86,VWS V14.01,2013-08-13 01:00:00,
2013-08-12 22:00:00,70.6,69.7,29.97,North,0,0.0,0.0,97,0.00,,OVC,1.86,VWS V14.01,2013-08-13 02:00:00,
2013-08-12 23:00:00,70.1,69.2,29.95,North,0,0.0,0.0,97,0.00,,OVC,1.86,VWS V14.01,2013-08-13 03:00:00,